When you browse on this site, cookies collect data to enhance your experience and personalize the content and advertising you see.
Visit our Privacy Policy to learn more. By continuing to use the site, you agree to this use of cookies and data.
  • In Hungary
  • List of Countries
  • For 7 days
  • Water Temperature
  • Weather Map
  • News
  • Weather Widgets
  • user-avatar
    Login

    Hourly Weather Vitomovo

    Today, 25 January, Saturday

    Time Temperature Precipitation Wind Pressure Humidity
    00:00 0°C° 0.1 mm 4 mps 734 mmHg 93%
    01:00 0°C° 0.1 mm 4 mps 734 mmHg 90%
    02:00 0°C° 0.1 mm 5 mps 734 mmHg 87%
    03:00 -1°C° 0 mm 4 mps 734 mmHg 87%
    04:00 -1°C° 0 mm 4 mps 734 mmHg 86%
    05:00 -1°C° 0 mm 4 mps 734 mmHg 85%
    06:00 -1°C° 0 mm 4 mps 733 mmHg 88%
    07:00 -1°C° 0 mm 4 mps 733 mmHg 90%
    08:00 -1°C° 0 mm 4 mps 733 mmHg 93%
    09:00 -1°C° 0 mm 5 mps 733 mmHg 89%
    10:00 0°C° 0 mm 5 mps 732 mmHg 85%
    11:00 -1°C° 0 mm 6 mps 732 mmHg 81%
    12:00 -1°C° 0.2 mm 6 mps 732 mmHg 76%
    13:00 -2°C° 0.2 mm 6 mps 732 mmHg 72%
    14:00 -2°C° 0.2 mm 6 mps 732 mmHg 68%
    15:00 -3°C° 0 mm 6 mps 733 mmHg 70%
    16:00 -3°C° 0 mm 6 mps 733 mmHg 72%
    17:00 -4°C° 0 mm 6 mps 734 mmHg 74%
    18:00 -4°C° 0 mm 6 mps 734 mmHg 75%
    19:00 -4°C° 0 mm 6 mps 735 mmHg 76%
    20:00 -5°C° 0 mm 6 mps 735 mmHg 77%
    21:00 -5°C° 0 mm 6 mps 736 mmHg 77%
    22:00 -5°C° 0 mm 6 mps 737 mmHg 78%
    23:00 -5°C° 0 mm 6 mps 737 mmHg 79%

    Tomorrow, 26 January, Sunday

    Time Temperature Precipitation Wind Pressure Humidity
    00:00 -5°C° 0 mm 6 mps 738 mmHg 78%
    01:00 -5°C° 0 mm 5 mps 739 mmHg 77%
    02:00 -5°C° 0 mm 5 mps 740 mmHg 77%
    03:00 -5°C° 0 mm 5 mps 741 mmHg 77%
    04:00 -5°C° 0 mm 4 mps 741 mmHg 78%
    05:00 -5°C° 0 mm 4 mps 742 mmHg 79%
    06:00 -5°C° 0 mm 4 mps 742 mmHg 80%
    07:00 -5°C° 0 mm 3 mps 743 mmHg 80%
    08:00 -5°C° 0 mm 3 mps 743 mmHg 81%
    09:00 -4°C° 0 mm 3 mps 744 mmHg 80%
    10:00 -4°C° 0 mm 4 mps 744 mmHg 79%
    11:00 -3°C° 0 mm 4 mps 744 mmHg 77%
    12:00 -3°C° 0 mm 4 mps 743 mmHg 79%
    13:00 -4°C° 0 mm 5 mps 743 mmHg 80%
    14:00 -4°C° 0 mm 5 mps 742 mmHg 82%
    15:00 -2°C° 0.1 mm 5 mps 742 mmHg 85%
    16:00 -3°C° 0.1 mm 6 mps 741 mmHg 87%
    17:00 -3°C° 0.1 mm 6 mps 740 mmHg 90%
    18:00 -2°C° 0 mm 6 mps 740 mmHg 91%
    19:00 0°C° 0 mm 5 mps 740 mmHg 92%
    20:00 +1°C° 0 mm 5 mps 740 mmHg 93%
    21:00 +1°C° 0.1 mm 5 mps 740 mmHg 91%
    22:00 +1°C° 0.1 mm 6 mps 740 mmHg 90%
    23:00 +1°C° 0.1 mm 6 mps 740 mmHg 88%

    Day after tomorrow, 27 January, Monday

    Time Temperature Precipitation Wind Pressure Humidity
    00:00 +1°C° 0 mm 5 mps 740 mmHg 89%
    01:00 +1°C° 0 mm 5 mps 740 mmHg 89%
    02:00 +1°C° 0 mm 5 mps 740 mmHg 90%
    03:00 +1°C° 0.1 mm 5 mps 741 mmHg 92%
    04:00 +1°C° 0.1 mm 4 mps 741 mmHg 93%
    05:00 +1°C° 0.1 mm 4 mps 741 mmHg 95%
    06:00 +2°C° 0.1 mm 3 mps 741 mmHg 95%
    07:00 +1°C° 0.1 mm 3 mps 742 mmHg 96%
    08:00 +1°C° 0.1 mm 3 mps 742 mmHg 97%
    09:00 +2°C° 0.1 mm 2 mps 743 mmHg 97%
    10:00 +2°C° 0.1 mm 2 mps 743 mmHg 97%
    11:00 +2°C° 0.1 mm 2 mps 743 mmHg 98%
    12:00 +2°C° 0.2 mm 2 mps 743 mmHg 98%
    13:00 +2°C° 0.2 mm 1 mps 744 mmHg 98%
    14:00 +2°C° 0.2 mm 1 mps 744 mmHg 98%
    15:00 +2°C° 0.4 mm 1 mps 744 mmHg 98%
    16:00 +2°C° 0.4 mm 1 mps 744 mmHg 98%
    17:00 +2°C° 0.4 mm 1 mps 744 mmHg 98%
    18:00 +2°C° 0.5 mm 1 mps 744 mmHg 98%
    19:00 +2°C° 0.5 mm 1 mps 744 mmHg 98%
    20:00 +2°C° 0.5 mm 1 mps 744 mmHg 98%
    21:00 +2°C° 0.5 mm 1 mps 744 mmHg 98%
    22:00 +2°C° 0.5 mm 1 mps 744 mmHg 98%
    23:00 +2°C° 0.5 mm 1 mps 743 mmHg 98%

    28 January, Tuesday

    Time Temperature Precipitation Wind Pressure Humidity
    00:00 +2°C° 0.2 mm 1 mps 743 mmHg 98%
    01:00 +2°C° 0.2 mm 1 mps 743 mmHg 98%
    02:00 +1°C° 0.2 mm 2 mps 743 mmHg 98%
    03:00 +1°C° 0.3 mm 2 mps 743 mmHg 98%
    04:00 +1°C° 0.3 mm 2 mps 742 mmHg 98%
    05:00 +1°C° 0.3 mm 2 mps 742 mmHg 98%
    06:00 +1°C° 0.1 mm 2 mps 742 mmHg 98%
    07:00 +1°C° 0.1 mm 2 mps 742 mmHg 98%
    08:00 +1°C° 0.1 mm 2 mps 742 mmHg 98%
    09:00 +1°C° 0.1 mm 2 mps 742 mmHg 98%
    10:00 +1°C° 0.1 mm 2 mps 742 mmHg 98%
    11:00 +1°C° 0.1 mm 2 mps 742 mmHg 98%
    12:00 +1°C° 0.1 mm 2 mps 742 mmHg 98%
    13:00 +1°C° 0.1 mm 2 mps 741 mmHg 97%
    14:00 +1°C° 0.1 mm 2 mps 741 mmHg 97%
    15:00 -1°C° 0.1 mm 2 mps 741 mmHg 97%
    16:00 -1°C° 0.1 mm 2 mps 741 mmHg 97%
    17:00 -1°C° 0.1 mm 2 mps 741 mmHg 97%
    18:00 -1°C° 0.1 mm 2 mps 741 mmHg 97%
    19:00 -1°C° 0.1 mm 2 mps 741 mmHg 97%
    20:00 -1°C° 0.1 mm 2 mps 741 mmHg 97%
    21:00 -1°C° 0.1 mm 2 mps 741 mmHg 97%
    22:00 -1°C° 0.1 mm 2 mps 741 mmHg 98%
    23:00 +1°C° 0.1 mm 2 mps 741 mmHg 98%

    29 January, Wednesday

    Time Temperature Precipitation Wind Pressure Humidity
    00:00 +1°C° 0.3 mm 2 mps 741 mmHg 98%
    01:00 +1°C° 0.3 mm 2 mps 740 mmHg 98%
    02:00 +1°C° 0.3 mm 2 mps 740 mmHg 98%
    03:00 +1°C° 0.2 mm 2 mps 740 mmHg 98%
    04:00 +1°C° 0.2 mm 2 mps 740 mmHg 98%
    05:00 +1°C° 0.2 mm 3 mps 740 mmHg 98%
    06:00 0°C° 0.1 mm 3 mps 740 mmHg 97%
    07:00 0°C° 0.1 mm 3 mps 740 mmHg 97%
    08:00 0°C° 0.1 mm 3 mps 740 mmHg 97%
    09:00 0°C° 0 mm 3 mps 740 mmHg 95%
    10:00 0°C° 0 mm 3 mps 740 mmHg 94%
    11:00 0°C° 0 mm 3 mps 740 mmHg 93%
    12:00 0°C° 0 mm 3 mps 740 mmHg 94%
    13:00 0°C° 0 mm 3 mps 740 mmHg 95%
    14:00 0°C° 0 mm 3 mps 739 mmHg 95%
    15:00 0°C° 0 mm 3 mps 739 mmHg 96%
    16:00 0°C° 0 mm 3 mps 739 mmHg 96%
    17:00 0°C° 0 mm 3 mps 739 mmHg 97%
    18:00 0°C° 0 mm 3 mps 739 mmHg 97%
    19:00 0°C° 0 mm 3 mps 739 mmHg 97%
    20:00 -1°C° 0 mm 4 mps 739 mmHg 97%
    21:00 0°C° 0 mm 3 mps 738 mmHg 96%
    22:00 0°C° 0 mm 3 mps 738 mmHg 95%
    23:00 0°C° 0 mm 3 mps 738 mmHg 94%

    30 January, Thursday

    Time Temperature Precipitation Wind Pressure Humidity
    00:00 -1°C° 0 mm 4 mps 738 mmHg 94%
    01:00 -1°C° 0 mm 4 mps 737 mmHg 95%
    02:00 -1°C° 0 mm 4 mps 737 mmHg 96%
    03:00 -1°C° 0.2 mm 4 mps 737 mmHg 96%
    04:00 -1°C° 0.2 mm 4 mps 736 mmHg 97%
    05:00 -1°C° 0.2 mm 4 mps 736 mmHg 97%
    06:00 -1°C° 0.3 mm 4 mps 736 mmHg 97%
    07:00 -1°C° 0.3 mm 4 mps 735 mmHg 97%
    08:00 -1°C° 0.3 mm 4 mps 735 mmHg 97%
    09:00 -1°C° 0.2 mm 4 mps 735 mmHg 97%
    10:00 -1°C° 0.2 mm 5 mps 735 mmHg 96%
    11:00 -2°C° 0.2 mm 5 mps 734 mmHg 96%
    12:00 -2°C° 0.2 mm 4 mps 734 mmHg 96%
    13:00 -2°C° 0.2 mm 4 mps 734 mmHg 96%
    14:00 -2°C° 0.2 mm 4 mps 734 mmHg 96%
    15:00 -2°C° 0.5 mm 4 mps 733 mmHg 96%
    16:00 -2°C° 0.5 mm 4 mps 733 mmHg 96%
    17:00 -3°C° 0.5 mm 4 mps 733 mmHg 97%
    18:00 -3°C° 0.5 mm 4 mps 733 mmHg 96%
    19:00 -2°C° 0.5 mm 3 mps 733 mmHg 96%
    20:00 -2°C° 0.5 mm 3 mps 733 mmHg 96%
    21:00 -2°C° 0.2 mm 3 mps 733 mmHg 96%
    22:00 -4°C° 0.2 mm 3 mps 733 mmHg 96%
    23:00 -4°C° 0.2 mm 3 mps 733 mmHg 95%
    Show more